Tracking 27405 objects as of 1-Jun-2023
HD Live streaming from Space Station
objects crossing your sky now

OSCAR 5

Track OSCAR 5 now!
10-day predictions
OSCAR 5 is classified as:


NORAD ID: 4321
Int'l Code: 1970-008B
Perigee: 1,441.3 km
Apogee: 1,483.9 km
Inclination: 101.4 °
Period: 115.0 minutes
Semi major axis: 7833 km
RCS: 0.3365 m2 (medium)
Launch date: January 23, 1970
Source: Australia (AUS)
Launch site: AIR FORCE WESTERN TEST RANGE (AFWTR)

Uplink (MHz):
Downlink (MHz): 29.450
Beacon (MHz): 144.050
Mode: CW
Call sign:
Status: Inactive

Your satellite tracking list
Your tracking list is empty




NASA's NSSDC Master Catalog

Two Line Element Set (TLE):
1 04321U 70008B   23151.94352061 -.00000049  00000-0 -36567-4 0  9993
2 04321 101.4249 194.2383 0027137 278.2468 204.0766 12.52162142438231
Source of the keplerian elements: AFSPC